[[{"header":{"parameterUnit":"m.s-1","parameterCategory":1,"la1":30.2991,"la2":30.254,"lo1":-89.0895,"lo2":-89.0444,"dy":0.0017,"dx":0.0017,"nx":28,"ny":28,"refTime":"2023-07-18T03:00:00:Z","depth":0,"parameterNumber":2,"parameterNumberName":"U-component_of_WINDS"},"data":[0,0,0,0,0,0,0,0,0,0,0,0,0,0,0,0,0,0,0,0,0,0,0,0,0,0,0,0,0,0,0,0,0,0,0,0,0,0,0,0,0,0,0,0,0,0,0,0,0,0,0,0,0,0,0,0,0,0,0.772,0.772,0,0.7777,0.7777,0.7778,0.7796,0.7796,0.7796,0.7796,0.7856,0.7858,0.786,0,0,0,0,0,0,0,0,0,0,0,0,0,0.7629,0.763,0.7719,0.772,0.7721,0.7776,0.7777,0.7778,0.7796,0.7796,0.7796,0.7796,0.7856,0.7858,0.786,0,0,0,0,0,0,0,0,0,0,0,0,0,0.7675,0.7631,0.7719,0.7737,0.7739,0.7776,0.7777,0.7778,0.7797,0.7796,0.7796,0.7795,0.7855,0.7858,0.786,0.7885,0,0,0.7869,0.787,0,0,0,0,0,0,0,0,0.7672,0.7678,0.7734,0.7736,0.7738,0.7779,0.7767,0.7814,0.7797,0.7775,0.7796,0.7795,0.7831,0.7836,0.7847,0.7888,0.7891,0.7869,0.7871,0.7872,0.7873,0,0,0,0,0,0,0,0.7669,0.7676,0.7742,0.7734,0.7737,0.7742,0.7749,0.7776,0.7804,0.7777,0.7778,0.7784,0.7832,0.7845,0.7849,0.7891,0.7869,0.7871,0.7873,0.7874,0.7956,0.7956,0,0,0,0,0,0,0.7663,0.7673,0.774,0.7744,0.7704,0.7744,0.7751,0.7766,0.7804,0.7809,0.7785,0.7785,0.784,0.7846,0.7851,0.7883,0.7872,0.7874,0.7876,0.7955,0.7956,0.7956,0,0,0,0,0,0,0.7661,0.7669,0.7738,0.7709,0.7718,0.7746,0.7763,0.7768,0.778,0.781,0.7816,0.7792,0.784,0.7847,0.7876,0.7885,0.7876,0.7878,0.7954,0.7955,0.7956,0.7946,0,0,0,0,0,0,0.7658,0.7668,0.7677,0.7709,0.772,0.7762,0.7764,0.7769,0.7784,0.7786,0.7819,0.7824,0.784,0.7872,0.7879,0.7889,0.788,0.7954,0.7955,0.7956,0.7946,0.7946,0.7947,0,0,0,0,0,0.7655,0.7672,0.7677,0.7685,0.7732,0.7762,0.7768,0.7786,0.7785,0.7795,0.7814,0.7823,0.7883,0.7875,0.7883,0.7894,0.7953,0.7955,0.7956,0.7946,0.7946,0.7947,0,0,0,0,0,0,0.7641,0.7677,0.7683,0.7711,0.7733,0.7765,0.7778,0.7787,0.781,0.781,0.7832,0.784,0.7867,0.7883,0.7874,0.792,0.7919,0.7921,0.7908,0.7909,0.791,0.7905,0.7883,0,0,0,0,0,0.7641,0.7663,0.7693,0.7715,0.7726,0.775,0.7764,0.7776,0.78,0.781,0.7832,0.7855,0.788,0.7895,0.7919,0.7948,0.7956,0.7959,0.796,0.796,0.7963,0.7979,0.7981,0.796,0.796,0.796,0,0,0.7642,0.7664,0.7677,0.7713,0.7732,0.7754,0.7758,0.7781,0.7798,0.7814,0.7843,0.7859,0.7887,0.7916,0.793,0.7931,0.797,0.7962,0.7962,0.7964,0.7981,0.7983,0.7984,0.7961,0.7961,0.796,0,0,0.7655,0.7674,0.7694,0.7713,0.7741,0.7757,0.7762,0.7792,0.7804,0.7833,0.7845,0.7866,0.7907,0.7927,0.7942,0.7962,0.7971,0.7969,0.7973,0.7989,0.799,0.7992,0.7999,0.8002,0.7972,0.7972,0.7972,0,0.7653,0.7686,0.7704,0.7727,0.7742,0.7757,0.7778,0.7796,0.783,0.7841,0.7841,0.7893,0.7913,0.7947,0.7952,0.7963,0.797,0.7966,0.7988,0.799,0.7992,0.7999,0.8002,0.7971,0.7971,0.7971,0.7971,0,0.7682,0.7705,0.7718,0.7751,0.7768,0.779,0.7812,0.7827,0.7838,0.7854,0.7883,0.7908,0.7937,0.7946,0.7956,0.7981,0.7981,0.7984,0.7984,0.7993,0.8001,0.8004,0.7971,0.7971,0.7971,0.7971,0,0,0.7688,0.773,0.7735,0.775,0.7782,0.78,0.7823,0.7851,0.7864,0.7887,0.7907,0.7941,0.7945,0.7962,0.7975,0.7989,0.8004,0.7991,0.7992,0.7993,0.8033,0.803,0.8033,0.8009,0.801,0.801,0.8031,0,0.7706,0.7746,0.7763,0.7796,0.7817,0.7832,0.7851,0.7873,0.7889,0.791,0.7928,0.7952,0.7954,0.7965,0.7979,0.7999,0.8012,0.7997,0.8029,0.8029,0.8021,0.8037,0.8034,0.8052,0.8034,0.8034,0.8034,0,0.7731,0.7754,0.7789,0.7818,0.7828,0.7845,0.7872,0.7892,0.7918,0.7928,0.7947,0.7959,0.7984,0.7981,0.8016,0.8006,0.802,0.8031,0.8032,0.8036,0.8033,0.8041,0.8058,0.8061,0.8039,0.8039,0.8038,0,0.7733,0.7772,0.7798,0.781,0.7845,0.7857,0.7872,0.7897,0.7913,0.7937,0.7947,0.7974,0.7989,0.8009,0.8028,0.8024,0.8061,0.806,0.8071,0.8071,0.8078,0.8078,0.8098,0.8087,0.8087,0.8087,0.8087,0,0.775,0.7771,0.7799,0.7815,0.7839,0.7858,0.7882,0.7898,0.792,0.794,0.7954,0.7972,0.7996,0.8018,0.8033,0.806,0.8066,0.8076,0.808,0.8075,0.8073,0.8084,0.8083,0.8087,0.8087,0.8087,0.8087,0,0.7756,0.7775,0.7805,0.7835,0.7843,0.786,0.7886,0.7902,0.7918,0.7943,0.795,0.7976,0.8002,0.8023,0.8057,0.8068,0.8096,0.81,0.8087,0.8089,0.8099,0.8097,0.8127,0.8131,0.8117,0.8117,0.8117,0,0.7766,0.7782,0.7814,0.7828,0.7843,0.7865,0.7881,0.7901,0.7917,0.7947,0.796,0.7987,0.801,0.8051,0.8073,0.8099,0.8105,0.8113,0.8109,0.8103,0.8105,0.8104,0.8106,0.8113,0.8114,0.8114,0.8114,0,0.7782,0.779,0.7813,0.7838,0.7857,0.7878,0.79,0.7911,0.7935,0.7952,0.7979,0.7996,0.8031,0.8058,0.8086,0.8103,0.8112,0.8115,0.8119,0.8114,0.8106,0.811,0.8088,0.8114,0.8114,0.8114,0.8114,0.8114,0.779,0.7805,0.783,0.7854,0.7873,0.7892,0.7909,0.7927,0.795,0.7979,0.799,0.8017,0.8042,0.8082,0.8098,0.812,0.8121,0.8126,0.8128,0.8129,0.8129,0.8102,0.8125,0.8125,0.8125,0.8125,0.8125,0,0.7807,0.7823,0.7845,0.7875,0.7894,0.7901,0.7925,0.7941,0.7965,0.7987,0.8009,0.804,0.8066,0.809,0.8117,0.813,0.8135,0.8136,0.8136,0.8139,0.8126,0.812,0.8132,0.8132,0.8132,0.8132,0.8132,0.8132,0.7817,0.7844,0.7855,0.7891,0.7908,0.7934,0.7947,0.7966,0.7984,0.8017,0.8039,0.8054,0.8077,0.8106,0.813,0.8137,0.8146,0.8146,0.8154,0.8141,0.814,0.8139,0.8134,0.8148,0.8148,0.8166,0.8166,0.8166]},{"header":{"parameterUnit":"m.s-1","parameterCategory":1,"la1":30.2991,"la2":30.254,"lo1":-89.0895,"lo2":-89.0444,"dy":0.0017,"dx":0.0017,"nx":28,"ny":28,"refTime":"2023-07-18T03:00:00:Z","depth":0,"parameterNumber":3,"parameterNumberName":"V-component_of_WINDS"},"data":[0,0,0,0,0,0,0,0,0,0,0,0,0,0,0,0,0,0,0,0,0,0,0,0,0,0,0,0,0,0,0,0,0,0,0,0,0,0,0,0,0,0,0,0,0,0,0,0,0,0,0,0,0,0,0,0,0,0,1.7972,1.7972,0,1.7976,1.7976,1.7976,1.7974,1.7974,1.7974,1.7974,1.7975,1.7975,1.7975,0,0,0,0,0,0,0,0,0,0,0,0,0,1.7957,1.7957,1.7972,1.7972,1.7972,1.7976,1.7976,1.7976,1.7974,1.7974,1.7974,1.7974,1.7975,1.7975,1.7975,0,0,0,0,0,0,0,0,0,0,0,0,0,1.7962,1.7957,1.7972,1.7971,1.7971,1.7976,1.7976,1.7976,1.7974,1.7974,1.7974,1.7974,1.7975,1.7975,1.7975,1.7979,0,0,1.7976,1.7976,0,0,0,0,0,0,0,0,1.7962,1.7963,1.7971,1.7971,1.7971,1.7974,1.7971,1.7977,1.7974,1.7973,1.7974,1.7974,1.7974,1.7975,1.7976,1.7979,1.7979,1.7976,1.7976,1.7976,1.7976,0,0,0,0,0,0,0,1.7961,1.7962,1.7973,1.7971,1.7971,1.7969,1.797,1.7972,1.7974,1.7973,1.7973,1.7974,1.7974,1.7975,1.7976,1.7979,1.7976,1.7976,1.7976,1.7976,1.798,1.798,0,0,0,0,0,0,1.7962,1.7962,1.7973,1.7973,1.7966,1.7969,1.797,1.7973,1.7974,1.7974,1.7974,1.7973,1.7975,1.7975,1.7976,1.7977,1.7976,1.7976,1.7976,1.798,1.798,1.798,0,0,0,0,0,0,1.7961,1.7963,1.7973,1.7968,1.7969,1.797,1.7973,1.7974,1.7975,1.7975,1.7975,1.7975,1.7975,1.7975,1.7977,1.7977,1.7976,1.7976,1.798,1.798,1.798,1.7982,0,0,0,0,0,0,1.7961,1.7963,1.7966,1.7968,1.7969,1.7976,1.7974,1.7974,1.7975,1.7975,1.7976,1.7976,1.7975,1.7977,1.7977,1.7977,1.7976,1.798,1.798,1.798,1.7982,1.7982,1.7982,0,0,0,0,0,1.796,1.7966,1.7966,1.7967,1.7973,1.7976,1.7977,1.7977,1.7975,1.7977,1.7976,1.7976,1.7977,1.7977,1.7977,1.7978,1.798,1.798,1.798,1.7982,1.7982,1.7982,0,0,0,0,0,0,1.7965,1.7967,1.7966,1.7974,1.7975,1.7976,1.7979,1.7978,1.7979,1.7978,1.7977,1.7977,1.7978,1.7978,1.7978,1.7979,1.7978,1.7978,1.7979,1.7979,1.7979,1.7979,1.7976,0,0,0,0,0,1.7966,1.797,1.7971,1.7977,1.7978,1.7978,1.7979,1.7979,1.798,1.798,1.798,1.7979,1.7979,1.7979,1.7979,1.7981,1.7979,1.7981,1.7981,1.7981,1.7981,1.7978,1.7978,1.798,1.798,1.798,0,0,1.797,1.7972,1.7974,1.7978,1.7979,1.798,1.7978,1.7981,1.7981,1.798,1.7981,1.798,1.7979,1.798,1.7981,1.798,1.798,1.7981,1.7982,1.7981,1.7978,1.7978,1.7978,1.798,1.798,1.798,0,0,1.7977,1.798,1.7984,1.7984,1.7985,1.7984,1.7985,1.7985,1.7985,1.7986,1.7984,1.7983,1.7984,1.7982,1.7981,1.7983,1.7981,1.7983,1.7983,1.7981,1.798,1.798,1.7978,1.7978,1.7983,1.7983,1.7983,0,1.7982,1.7986,1.7986,1.7987,1.7987,1.7986,1.7987,1.7987,1.7988,1.7987,1.7986,1.7985,1.7984,1.7983,1.7983,1.7983,1.7981,1.7983,1.7981,1.798,1.798,1.7978,1.7978,1.7983,1.7983,1.7983,1.7983,0,1.7989,1.7991,1.7994,1.7994,1.7994,1.7996,1.7994,1.7994,1.7992,1.799,1.7989,1.7988,1.7986,1.7986,1.7985,1.7983,1.7982,1.7981,1.798,1.798,1.7978,1.7977,1.7983,1.7983,1.7983,1.7983,0,0,1.8001,1.7999,1.8,1.7998,1.7997,1.7997,1.7997,1.7995,1.7994,1.7993,1.7991,1.799,1.7988,1.7987,1.7985,1.7983,1.798,1.7981,1.7981,1.7979,1.7974,1.7973,1.7973,1.7978,1.7978,1.7978,1.7973,0,1.8007,1.8008,1.8006,1.8006,1.8006,1.8002,1.8001,1.7999,1.7997,1.7995,1.7991,1.7989,1.7989,1.7987,1.7985,1.7981,1.7978,1.7981,1.7974,1.7974,1.7974,1.7972,1.7973,1.7968,1.7972,1.7972,1.7972,0,1.8014,1.8013,1.8013,1.8008,1.8008,1.8008,1.8004,1.8003,1.7998,1.7996,1.7993,1.799,1.7987,1.7986,1.7979,1.7981,1.7978,1.7975,1.7975,1.7973,1.7973,1.7969,1.7967,1.7966,1.7971,1.7971,1.7972,0,1.802,1.8018,1.8017,1.8016,1.8011,1.801,1.8008,1.8003,1.8001,1.7997,1.7995,1.799,1.7987,1.7983,1.7977,1.7978,1.797,1.797,1.7966,1.7966,1.7965,1.7965,1.796,1.7965,1.7965,1.7965,1.7965,0,1.8025,1.8025,1.8019,1.8019,1.8017,1.8013,1.801,1.8007,1.8003,1.7999,1.7996,1.7992,1.7986,1.7981,1.7977,1.797,1.7969,1.7966,1.7964,1.7965,1.7965,1.7963,1.7962,1.7964,1.7964,1.7964,1.7964,0,1.8032,1.8028,1.8026,1.8021,1.8019,1.8018,1.8012,1.8009,1.8005,1.8001,1.7999,1.7993,1.7986,1.798,1.7972,1.7969,1.7961,1.796,1.7963,1.7962,1.7958,1.7957,1.7951,1.7948,1.7955,1.7955,1.7955,0,1.8035,1.8035,1.8028,1.8026,1.8023,1.802,1.8017,1.8011,1.8008,1.8001,1.7998,1.7992,1.7986,1.7975,1.7968,1.796,1.7958,1.7956,1.7957,1.7957,1.7956,1.7955,1.7954,1.7956,1.7956,1.7956,1.7956,0,1.804,1.8038,1.8034,1.8029,1.8025,1.8021,1.8016,1.8014,1.8007,1.8003,1.7996,1.7991,1.7981,1.7973,1.7964,1.7959,1.7955,1.7956,1.7954,1.7955,1.7955,1.7952,1.7961,1.7956,1.7956,1.7956,1.7956,1.7956,1.8044,1.8042,1.8036,1.8031,1.8026,1.8021,1.8018,1.8012,1.8007,1.7999,1.7995,1.7987,1.7979,1.7966,1.7961,1.7953,1.7952,1.7951,1.795,1.7949,1.7948,1.7957,1.7951,1.7951,1.7951,1.7951,1.7951,0,1.8047,1.8042,1.8038,1.803,1.8025,1.8022,1.8016,1.8011,1.8005,1.7998,1.7991,1.7981,1.7972,1.7964,1.7954,1.7949,1.7947,1.7946,1.7946,1.7944,1.7951,1.7952,1.7948,1.7948,1.7948,1.7948,1.7948,1.7948,1.8048,1.8043,1.8039,1.803,1.8025,1.8018,1.8014,1.8008,1.8002,1.7991,1.7983,1.7978,1.7969,1.7958,1.7948,1.7946,1.7941,1.7941,1.7938,1.7944,1.7944,1.7945,1.7946,1.7941,1.7941,1.7932,1.7932,1.7932]}]]